Tracking 19817 objects as of 20-Aug-2019
HD Live streaming from Space Station
objects crossing your sky now

SL-18 DEB

Track SL-18 DEB now!
10-day predictions


NORAD ID: 28950
Int'l Code: 1993-014AB
Perigee: 588.5 km
Apogee: 665.5 km
Inclination: 75.7 °
Period: 97.1 minutes
Semi major axis: 6998 km
RCS: 0.0115 m2 (small)
Launch date: March 25, 1993
Source: Commonwealth of Independent States (former USSR) (CIS)
Launch site: PLESETSK MISSILE AND SPACE COMPLEX (PKMTR)

Note: This is SATELLITE DEBRIS
aabbcc
Your satellite tracking list
Your tracking list is empty




NASA's NSSDC Master Catalog

Two Line Element Set (TLE):
1 28950U 93014AB  19231.95053536 +.00001376 +00000-0 +16731-3 0  9991
2 28950 075.7384 313.7216 0055040 189.3099 288.9661 14.83000280330222
Source of the keplerian elements: AFSPC